This demonstration page uses our WeatherBlox Daily Observations layout. Learn more.

Left ArrowRight Arrow

44.31136, -96.79839

Hourly Observations for August 2, 2018

Temp ( °F °C ) Dew Point ( °F °C ) Humidity (%) Winds ( mph kmh ) Pressure ( in mb ) Visibility ( mi km ) Precip ( " mm )
12:56 am 00:56 Mostly Cloudy 56 13.3 50 10 81 81 NNE 9 15 30.10 1019 10 16 0.00 0.00
1:27 am 01:27 Partly Cloudy 55 13 48 9 77 77 NE 6 9 30.06 1018 10 16 0.00 0.00
1:56 am 01:56 Mostly Clear 54 12.2 49 9.4 83 83 N 5 7 30.09 1019 10 16 0.00 0.00
2:56 am 02:56 Clear 52 11.1 49 9.4 89 89 N 3 6 30.08 1019 10 16 0.00 0.00
3:56 am 03:56 Clear 51 10.6 48 8.9 89 89 NNE 3 6 30.08 1019 10 16 0.00 0.00
4:56 am 04:56 Clear 48 8.9 46 7.8 93 93 Calm 30.09 1019 10 16 0.00 0.00
5:51 am 05:51 Partly Cloudy with Mist and Fog 46 8 45 7 93 93 SW 5 7 30.09 1019 3 4 0.00 0.00
5:54 am 05:54 Mostly Cloudy with Mist and Fog 46 8 45 7 93 93 SW 3 6 30.09 1019 1 2 0.00 0.00
5:56 am 05:56 Mostly Cloudy with Mist and Fog 46 7.8 45 7.2 96 96 Calm 30.10 1019 1 1 0.00 0.00
6:04 am 06:04 Mostly Cloudy with Mist and Fog 46 8 45 7 93 93 Calm 30.09 1019 2 2 0.00 0.00
6:08 am 06:08 Partly Cloudy with Mist and Fog 46 8 45 7 93 93 Calm 30.09 1019 3 5 0.00 0.00
6:15 am 06:15 Mostly Cloudy with Mist and Fog 46 8 45 7 93 93 Calm 30.09 1019 1 2 0.00 0.00
6:18 am 06:18 Mostly Cloudy with Fog 46 8 45 7 93 93 Calm 30.09 1019 1 1 0.00 0.00
6:28 am 06:28 Sunny with Fog 46 8 46 8 100 100 Calm 30.09 1019 1 1 0.00 0.00
6:36 am 06:36 Mostly Cloudy with Fog 46 8 46 8 100 100 Calm 30.09 1019 0 0 0.00 0.00
6:44 am 06:44 Mostly Cloudy with Mist and Fog 46 8 46 8 100 100 Calm N/A 1 1 0.00 0.00
6:50 am 06:50 Partly Cloudy with Mist and Fog 46 8 46 8 100 100 Calm 30.09 1019 3 4 0.00 0.00
6:51 am 06:51 Partly Cloudy with Mist and Fog 46 8 46 8 100 100 Calm 30.09 1019 4 6 0.00 0.00
6:56 am 06:56 Mostly Sunny 48 8.9 47 8.3 96 96 Calm 30.10 1019 10 16 0.00 0.00
7:56 am 07:56 Sunny 52 11.1 50 10 93 93 SW 3 6 30.10 1019 10 16 0.00 0.00
8:56 am 08:56 Sunny 57 13.9 51 10.6 81 81 SE 6 9 30.09 1019 10 16 0.00 0.00
9:56 am 09:56 Sunny 60 15.6 51 10.6 72 72 VRB 7 11 30.09 1019 10 16 0.00 0.00
10:56 am 10:56 Sunny 63 17.2 53 11.7 70 70 S 7 11 30.06 1018 10 16 0.00 0.00
11:56 am 11:56 Sunny 66 18.9 54 12.2 65 65 S 9 15 30.05 1018 10 16 0.00 0.00
12:56 pm 12:56 Mostly Sunny 68 20 54 12.2 61 61 S 8 13 30.04 1017 10 16 0.00 0.00
1:56 pm 13:56 Sunny 70 21.1 54 12.2 57 57 SSE 7 11 30.02 1017 10 16 0.00 0.00
2:56 pm 14:56 Sunny 73 22.8 57 13.9 57 57 S 10 17 30.00 1016 10 16 0.00 0.00
3:56 pm 15:56 Sunny 74 23.3 57 13.9 56 56 SSE 15 24 29.98 1015 10 16 0.00 0.00
4:56 pm 16:56 Sunny 75 23.9 59 15 58 58 SE 12 19 29.98 1015 10 16 0.00 0.00
5:56 pm 17:56 Sunny 75 23.9 60 15.6 60 60 SSE 13 20 29.98 1015 10 16 0.00 0.00
6:56 pm 18:56 Sunny 74 23.3 61 16.1 64 64 SSE 13 20 29.96 1014 10 16 0.00 0.00
7:56 pm 19:56 Sunny 72 22.2 62 16.7 71 71 SSE 12 19 29.94 1014 10 16 0.00 0.00
8:56 pm 20:56 Clear 70 21.1 62 16.7 76 76 SE 12 19 29.93 1014 10 16 0.00 0.00
9:56 pm 21:56 Clear 68 20 62 16.7 81 81 SE 13 20 29.93 1013 10 16 0.00 0.00
10:56 pm 22:56 Clear 68 20 62 16.7 81 81 SE 16 26 29.92 1013 10 16 0.00 0.00
11:56 pm 23:56 Clear 67 19.4 62 16.7 84 84 SE 14 22 29.91 1013 10 16 0.00 0.00

Powered by AerisWeather